Trenton, NJ

1:52 PM EDT on June 27, 2017 (GMT -0400)
Trenton Mercer

Weather History for KTTN - April, 2014

Change the Weather History Date:

Friday, April 18, 2014

  Actual Average Record
Temperature  
Mean Temperature 45 °F 52 °F  
Max Temperature 52 °F 62 °F 93 °F (1976)
Min Temperature 37 °F 42 °F 29 °F (1875)
Degree Days  
Heating Degree Days 20 13  
Month to date heating degree days 254 285  
Since 1 July heating degree days 5213 4831  
Cooling Degree Days 0 0  
Month to date cooling degree days 6 0  
Year to date cooling degree days 6 0  
Moisture  
Dew Point 29 °F    
Average Humidity 60    
Maximum Humidity 79    
Minimum Humidity 41    
Precipitation  
Precipitation 0.00 in 0.12 in 1.94 in (1924)
Month to date precipitation 1.40 2.31  
Year to date precipitation 12.39 11.92  
Sea Level Pressure  
Sea Level Pressure 30.44 in    
Wind  
Wind Speed 5 mph (ESE)    
Max Wind Speed 13 mph    
Max Gust Speed 19 mph    
Visibility 10 miles    
Events      
T = Trace of Precipitation, MM = Missing Value Source: NWS Daily Summary

Daily Weather History Graph

Daily Weather History Graph

Search for Another Location

Airport or City:

Trip Planner

Search our weather history database for the weather conditions in past years. The results will help you decide how hot, cold, wet, or windy it might be!

Date:

Astronomy

Apr. 18, 2014 Rise Set
Actual Time 6:16 AM EDT 7:41 PM EDT
Civil Twilight 5:48 AM EDT 8:09 PM EDT
Nautical Twilight 5:14 AM EDT 8:43 PM EDT
Astronomical Twilight 4:38 AM EDT 9:19 PM EDT
Moon 11:24 PM EDT (4/18) 8:36 AM EDT (4/18)
Length of Visible Light 14h 21m
Length of Day
13h 24m
Waning Gibbous, 87% of the Moon is Illuminated
Apr 18
Waning Gibbous
Apr 22
Last Quarter
Apr 29
New
May 6
First Quarter
May 14
Full

Hourly Weather History & Observations

Time (EDT) Temp. Windchill Dew Point Humidity Pressure Visibility Wind Dir Wind Speed Gust Speed Precip Events Conditions
12:53 AM 37.0 °F - 30.0 °F 76% 30.58 in 10.0 mi Calm Calm - N/A   Overcast
1:53 AM 37.0 °F 34.5 °F 30.0 °F 76% 30.58 in 10.0 mi East 3.5 mph - N/A   Overcast
2:53 AM 37.0 °F 34.5 °F 30.0 °F 76% 30.55 in 10.0 mi Variable 3.5 mph - N/A   Overcast
3:53 AM 37.9 °F 33.5 °F 28.9 °F 70% 30.51 in 10.0 mi East 5.8 mph - N/A   Overcast
4:53 AM 37.9 °F 32.7 °F 28.9 °F 70% 30.48 in 10.0 mi ENE 6.9 mph - N/A   Overcast
5:53 AM 37.9 °F 33.5 °F 28.0 °F 68% 30.48 in 10.0 mi ENE 5.8 mph - N/A   Overcast
6:53 AM 37.9 °F 32.7 °F 28.9 °F 70% 30.50 in 10.0 mi ENE 6.9 mph - N/A   Overcast
7:53 AM 37.9 °F 32.7 °F 27.0 °F 65% 30.53 in 10.0 mi ENE 6.9 mph - N/A   Overcast
8:53 AM 39.0 °F 34.8 °F 28.0 °F 65% 30.51 in 10.0 mi East 5.8 mph - N/A   Overcast
9:53 AM 39.9 °F 36.7 °F 27.0 °F 60% 30.50 in 10.0 mi ENE 4.6 mph - N/A   Mostly Cloudy
10:20 AM 39.0 °F 35.7 °F 27.0 °F 62% 30.51 in 10.0 mi East 4.6 mph - N/A   Scattered Clouds
10:53 AM 42.1 °F 39.2 °F 28.9 °F 60% 30.48 in 10.0 mi ESE 4.6 mph - N/A   Scattered Clouds
11:53 AM 44.1 °F - 28.0 °F 53% 30.47 in 10.0 mi Calm Calm - N/A   Clear
12:53 PM 46.0 °F - 28.0 °F 50% 30.44 in 10.0 mi Calm Calm - N/A   Clear
1:53 PM 46.9 °F - 30.0 °F 52% 30.43 in 10.0 mi Variable 6.9 mph - N/A   Clear
2:53 PM 48.9 °F - 30.0 °F 48% 30.38 in 10.0 mi South 3.5 mph - N/A   Clear
3:53 PM 50.0 °F - 30.0 °F 46% 30.34 in 10.0 mi South 6.9 mph - N/A   Clear
4:53 PM 51.1 °F - 28.0 °F 41% 30.33 in 10.0 mi WNW 5.8 mph - N/A   Clear
5:53 PM 51.1 °F - 28.9 °F 43% 30.31 in 10.0 mi Calm Calm - N/A   Clear
6:53 PM 50.0 °F - 28.9 °F 44% 30.29 in 10.0 mi South 3.5 mph - N/A   Clear
8:53 PM 45.0 °F 40.1 °F 34.0 °F 65% 30.30 in 10.0 mi SSE 9.2 mph - N/A   Clear
9:53 PM 43.0 °F 38.8 °F 34.0 °F 71% 30.28 in 10.0 mi SSE 6.9 mph - N/A   Clear
11:53 PM 39.9 °F 35.1 °F 34.0 °F 79% 30.26 in 10.0 mi South 6.9 mph - N/A   Clear